Location: Homewood
(41.1836°S, 175.9581°E)
Time: 00:44:18
(UTC+00:00)

Cosmos 1933 Rocket - Visible Passes

Search period start: 16 July 2024 00:00
Search period end: 26 July 2024 00:00
Orbit: 604 x 625 km, 82.5° (Epoch: 15 July)

Date Brightness Start Highest point End Pass type
(mag) Time Alt. Az. Time Alt. Az. Time Alt. Az.
16 Jul 3.5 05:49:55 10° N 05:54:17 83° E 05:58:42 10° S visible
16 Jul 5.9 17:43:49 11° NNW 17:43:49 11° NNW 17:43:57 10° NNW visible
17 Jul 4.4 06:06:03 10° NNW 06:10:19 53° W 06:14:38 10° S visible
18 Jul 5.6 06:22:37 10° NW 06:26:26 29° WSW 06:30:17 10° SSW visible
19 Jul 6.4 06:39:45 10° WNW 06:42:38 17° WSW 06:45:32 10° SSW visible
22 Jul 5.5 05:48:48 10° NW 05:52:41 31° WSW 05:56:38 10° SSW visible
23 Jul 6.3 06:05:51 10° WNW 06:08:53 18° WSW 06:11:57 10° SSW visible
24 Jul 6.8 06:24:28 10° WSW 06:25:11 10° WSW 06:25:53 10° WSW visible
